YAOGAN-7

Last updated on Tue Jul 08 2025 00:02:29 GMT+0000 (Coordinated Universal Time)

1 36110U 09069A 25188.57095739 .00000384 00000+0 61075-4 0 9991 2 36110 98.0526 70.7634 0026210 70.7366 289.6676 14.77449810838738
UTC large
Height (km)
Speed (km/s)
/
Latitude / Longitude
Inclination (degrees)
Orbital Period (minutes)
Azimuth
Elevation
Range (km)
Doppler Factor

Next 0 passes for location: London (51.5072 / 0.1276)

Sorry there are no passes over London.